Location: Larkspur
(54.4391°N, 113.7691°W)
Time: 21:27:52
(UTC+00:00)

YUBILEINY - Visible Passes

Search period start: 29 November 2023 00:00
Search period end: 09 December 2023 00:00
Orbit: 1478 x 1508 km, 82.5° (Epoch: 29 November)

Date Brightness Start Highest point End Pass type
(mag) Time Alt. Az. Time Alt. Az. Time Alt. Az.
29 Nov ? 01:14:06 10° N 01:18:48 15° NNE 01:20:01 15° NE visible
29 Nov ? 03:10:28 10° N 03:15:55 34° NNE 03:15:55 34° NNE visible
29 Nov ? 05:07:26 10° NNW 05:11:50 33° NNW 05:11:50 33° NNW visible
29 Nov ? 07:05:52 10° NNW 07:07:44 14° NW 07:07:44 14° NW visible
30 Nov ? 00:25:04 10° N 00:27:21 11° NNE 00:29:38 10° NE visible
30 Nov ? 02:20:56 10° N 02:26:49 27° NE 02:26:49 27° NE visible
30 Nov ? 04:17:41 10° NNW 04:22:43 40° N 04:22:43 40° N visible
30 Nov ? 06:15:17 10° NNW 06:18:38 21° NW 06:18:38 21° NW visible
01 Dec ? 01:31:29 10° N 01:37:26 19° NE 01:37:42 19° NE visible
01 Dec ? 03:28:01 10° N 03:33:37 40° NNE 03:33:37 40° NNE visible
01 Dec ? 05:25:11 10° NNW 05:29:32 30° NW 05:29:32 30° NW visible
01 Dec ? 07:25:10 10° NW 07:25:27 10° NW 07:25:27 10° NW visible
01 Dec ? 14:47:59 10° E 14:51:20 13° ENE 14:54:40 10° NE visible
02 Dec ? 00:42:09 10° N 00:46:14 14° NNE 00:48:38 12° NE visible
02 Dec ? 02:38:26 10° N 02:44:33 34° NE 02:44:33 34° NE visible
02 Dec ? 04:35:20 10° NNW 04:40:28 40° NNW 04:40:28 40° NNW visible
02 Dec ? 06:33:26 10° NNW 06:36:22 17° NW 06:36:22 17° NW visible
02 Dec ? 23:53:35 10° N 23:54:41 10° NNE 23:55:47 10° NNE visible
03 Dec ? 01:48:55 10° N 01:55:30 25° NE 01:55:30 25° NE visible
03 Dec ? 03:45:36 10° N 03:51:25 47° N 03:51:25 47° N visible
03 Dec ? 05:43:03 10° NNW 05:47:20 26° NW 05:47:20 26° NW visible
04 Dec ? 00:59:29 10° N 01:04:56 17° NE 01:06:29 17° NE visible
04 Dec ? 02:55:58 10° N 03:02:24 43° NNE 03:02:24 43° NNE visible
04 Dec ? 04:53:02 10° NNW 04:58:19 38° NW 04:58:19 38° NW visible
04 Dec ? 06:52:08 10° NW 06:54:14 13° NW 06:54:14 13° NW visible
04 Dec ? 14:18:16 10° ENE 14:19:40 10° ENE 14:21:04 10° NE visible
05 Dec ? 00:10:15 10° N 00:13:38 12° NNE 00:16:59 10° NE visible
05 Dec ? 02:06:24 10° N 02:13:24 33° NE 02:13:24 33° NE visible
05 Dec ? 04:03:13 10° NNW 04:09:20 51° NNW 04:09:20 51° NNW visible
05 Dec ? 06:01:05 10° NNW 06:05:15 21° NW 06:05:15 21° NW visible
06 Dec ? 01:16:54 10° N 01:23:27 22° NE 01:24:27 22° NE visible
06 Dec ? 03:13:32 10° N 03:20:23 55° NNE 03:20:23 55° NNE visible
06 Dec ? 05:10:50 10° NNW 05:16:18 33° NW 05:16:18 33° NW visible
06 Dec ? 14:31:34 10° E 14:36:20 16° ENE 14:41:05 10° NNE visible
07 Dec ? 00:27:31 10° N 00:32:24 16° NE 00:35:33 13° ENE visible
07 Dec ? 02:23:54 10° N 02:31:29 43° NE 02:31:29 43° NE visible
07 Dec ? 04:20:54 10° NNW 04:27:24 50° NW 04:27:24 50° NW visible
07 Dec ? 06:19:29 10° NNW 06:23:20 16° WNW 06:23:20 16° WNW visible
08 Dec ? 01:34:22 10° N 01:41:48 29° NE 01:42:38 29° ENE visible
08 Dec ? 03:31:07 10° NNW 03:38:34 68° N 03:38:34 68° N visible
08 Dec ? 05:28:47 10° NNW 05:34:30 27° WNW 05:34:30 27° WNW visible
08 Dec ? 14:46:47 10° ESE 14:53:09 23° ENE 14:59:31 10° NNE visible
